• In Latvia
  • List of Countries
  • For 7 days
  • Water Temperature
  • Satellite Maps
  • Weather Map
  • Weather Widgets
  • user-avatar
    Login

    Hourly Weather Stolniceni

    Today, 16 October, Tuesday

    Time Temperature Precipitation Wind Pressure Humidity
    00:00 +14°C° 0 mm 1 mps 754 mmHg 62%
    01:00 +13°C° 0 mm 1 mps 754 mmHg 64%
    02:00 +12°C° 0 mm 1 mps 754 mmHg 68%
    03:00 +12°C° 0 mm 1 mps 754 mmHg 69%
    04:00 +12°C° 0 mm 1 mps 753 mmHg 71%
    05:00 +12°C° 0 mm 1 mps 753 mmHg 73%
    06:00 +12°C° 0 mm 1 mps 753 mmHg 69%
    07:00 +13°C° 0 mm 1 mps 753 mmHg 66%
    08:00 +14°C° 0 mm 1 mps 754 mmHg 63%
    09:00 +16°C° 0 mm 2 mps 754 mmHg 55%
    10:00 +18°C° 0 mm 2 mps 753 mmHg 48%
    11:00 +21°C° 0 mm 3 mps 753 mmHg 41%
    12:00 +22°C° 0 mm 3 mps 753 mmHg 38%
    13:00 +24°C° 0 mm 3 mps 753 mmHg 35%
    14:00 +25°C° 0 mm 3 mps 753 mmHg 32%
    15:00 +24°C° 0 mm 3 mps 753 mmHg 35%
    16:00 +23°C° 0 mm 2 mps 753 mmHg 38%
    17:00 +21°C° 0 mm 2 mps 752 mmHg 41%
    18:00 +21°C° 0 mm 1 mps 752 mmHg 44%
    19:00 +20°C° 0 mm 1 mps 752 mmHg 47%
    20:00 +18°C° 0 mm 1 mps 752 mmHg 50%
    21:00 +18°C° 0 mm 1 mps 752 mmHg 51%
    22:00 +18°C° 0 mm 1 mps 752 mmHg 53%
    23:00 +16°C° 0 mm 1 mps 752 mmHg 54%

    Tomorrow, 17 October, Wednesday

    Time Temperature Precipitation Wind Pressure Humidity
    00:00 +16°C° 0 mm 1 mps 752 mmHg 57%
    01:00 +15°C° 0 mm 1 mps 752 mmHg 59%
    02:00 +15°C° 0 mm 1 mps 752 mmHg 61%
    03:00 +15°C° 0 mm 1 mps 752 mmHg 63%
    04:00 +14°C° 0 mm 1 mps 752 mmHg 66%
    05:00 +14°C° 0 mm 1 mps 752 mmHg 68%
    06:00 +14°C° 0 mm 1 mps 752 mmHg 67%
    07:00 +15°C° 0 mm 2 mps 752 mmHg 65%
    08:00 +16°C° 0 mm 2 mps 753 mmHg 63%
    09:00 +18°C° 0 mm 2 mps 752 mmHg 57%
    10:00 +20°C° 0 mm 3 mps 752 mmHg 51%
    11:00 +22°C° 0 mm 3 mps 752 mmHg 45%
    12:00 +22°C° 0 mm 3 mps 752 mmHg 42%
    13:00 +23°C° 0 mm 4 mps 752 mmHg 39%
    14:00 +25°C° 0 mm 4 mps 752 mmHg 36%
    15:00 +24°C° 0 mm 3 mps 751 mmHg 39%
    16:00 +22°C° 0 mm 3 mps 751 mmHg 42%
    17:00 +21°C° 0 mm 2 mps 751 mmHg 46%
    18:00 +19°C° 0 mm 2 mps 751 mmHg 49%
    19:00 +18°C° 0 mm 2 mps 751 mmHg 52%
    20:00 +18°C° 0 mm 1 mps 751 mmHg 56%
    21:00 +18°C° 0 mm 1 mps 751 mmHg 57%
    22:00 +16°C° 0 mm 1 mps 751 mmHg 59%
    23:00 +16°C° 0 mm 1 mps 751 mmHg 61%

    Day after tomorrow, 18 October, Thursday

    Time Temperature Precipitation Wind Pressure Humidity
    00:00 +15°C° 0 mm 1 mps 751 mmHg 62%
    01:00 +15°C° 0 mm 1 mps 751 mmHg 63%
    02:00 +14°C° 0 mm 1 mps 751 mmHg 64%
    03:00 +14°C° 0 mm 1 mps 751 mmHg 65%
    04:00 +13°C° 0 mm 1 mps 750 mmHg 66%
    05:00 +13°C° 0 mm 1 mps 750 mmHg 67%
    06:00 +14°C° 0 mm 2 mps 750 mmHg 65%
    07:00 +14°C° 0 mm 2 mps 750 mmHg 63%
    08:00 +15°C° 0 mm 2 mps 750 mmHg 60%
    09:00 +17°C° 0 mm 2 mps 750 mmHg 54%
    10:00 +19°C° 0 mm 3 mps 750 mmHg 48%
    11:00 +21°C° 0 mm 3 mps 750 mmHg 42%
    12:00 +21°C° 0 mm 3 mps 750 mmHg 39%
    13:00 +22°C° 0 mm 3 mps 750 mmHg 36%
    14:00 +24°C° 0 mm 3 mps 749 mmHg 33%
    15:00 +23°C° 0 mm 2 mps 749 mmHg 36%
    16:00 +21°C° 0 mm 2 mps 749 mmHg 39%
    17:00 +20°C° 0 mm 2 mps 749 mmHg 41%
    18:00 +20°C° 0 mm 1 mps 749 mmHg 44%
    19:00 +18°C° 0 mm 1 mps 749 mmHg 47%
    20:00 +16°C° 0 mm 1 mps 749 mmHg 50%
    21:00 +16°C° 0 mm 1 mps 749 mmHg 52%
    22:00 +15°C° 0 mm 1 mps 749 mmHg 54%
    23:00 +14°C° 0 mm 0 mps 749 mmHg 56%

    19 October, Friday

    Time Temperature Precipitation Wind Pressure Humidity
    00:00 +13°C° 0 mm 0 mps 749 mmHg 57%
    01:00 +13°C° 0 mm 0 mps 748 mmHg 58%
    02:00 +14°C° 0 mm 1 mps 748 mmHg 59%
    03:00 +14°C° 0 mm 1 mps 748 mmHg 59%
    04:00 +14°C° 0 mm 1 mps 748 mmHg 59%
    05:00 +13°C° 0 mm 1 mps 748 mmHg 59%
    06:00 +14°C° 0 mm 1 mps 748 mmHg 58%
    07:00 +15°C° 0 mm 1 mps 748 mmHg 56%
    08:00 +15°C° 0 mm 1 mps 748 mmHg 54%
    09:00 +18°C° 0 mm 1 mps 748 mmHg 49%
    10:00 +18°C° 0 mm 2 mps 748 mmHg 44%
    11:00 +20°C° 0 mm 2 mps 748 mmHg 39%
    12:00 +21°C° 0 mm 2 mps 748 mmHg 37%
    13:00 +21°C° 0 mm 2 mps 748 mmHg 35%
    14:00 +23°C° 0 mm 2 mps 747 mmHg 33%
    15:00 +21°C° 0 mm 2 mps 747 mmHg 35%
    16:00 +20°C° 0 mm 2 mps 747 mmHg 38%
    17:00 +19°C° 0 mm 2 mps 747 mmHg 40%
    18:00 +18°C° 0 mm 2 mps 747 mmHg 42%
    19:00 +17°C° 0 mm 2 mps 747 mmHg 45%
    20:00 +17°C° 0 mm 2 mps 748 mmHg 47%
    21:00 +16°C° 0 mm 2 mps 748 mmHg 49%
    22:00 +16°C° 0 mm 2 mps 748 mmHg 51%
    23:00 +15°C° 0 mm 2 mps 748 mmHg 53%

    20 October, Saturday

    Time Temperature Precipitation Wind Pressure Humidity
    00:00 +15°C° 0 mm 2 mps 748 mmHg 57%
    01:00 +13°C° 0 mm 3 mps 748 mmHg 61%
    02:00 +13°C° 0 mm 3 mps 748 mmHg 65%
    03:00 +13°C° 0 mm 3 mps 747 mmHg 68%
    04:00 +12°C° 0 mm 3 mps 747 mmHg 72%
    05:00 +12°C° 0 mm 3 mps 747 mmHg 75%
    06:00 +13°C° 0 mm 3 mps 748 mmHg 75%
    07:00 +13°C° 0 mm 4 mps 748 mmHg 74%
    08:00 +13°C° 0 mm 4 mps 748 mmHg 74%
    09:00 +15°C° 0 mm 4 mps 748 mmHg 68%
    10:00 +17°C° 0 mm 4 mps 748 mmHg 62%
    11:00 +17°C° 0 mm 5 mps 748 mmHg 56%
    12:00 +19°C° 0 mm 5 mps 748 mmHg 54%
    13:00 +19°C° 0 mm 5 mps 748 mmHg 52%
    14:00 +20°C° 0 mm 5 mps 747 mmHg 50%
    15:00 +19°C° 0 mm 5 mps 747 mmHg 53%
    16:00 +18°C° 0 mm 4 mps 747 mmHg 55%
    17:00 +17°C° 0 mm 3 mps 747 mmHg 57%
    18:00 +16°C° 0 mm 3 mps 747 mmHg 61%
    19:00 +14°C° 0 mm 3 mps 748 mmHg 65%
    20:00 +13°C° 0 mm 3 mps 748 mmHg 69%
    21:00 +13°C° 0 mm 3 mps 748 mmHg 71%
    22:00 +12°C° 0 mm 3 mps 748 mmHg 73%
    23:00 +12°C° 0 mm 3 mps 748 mmHg 75%

    21 October, Sunday

    Time Temperature Precipitation Wind Pressure Humidity
    00:00 +11°C° 0 mm 3 mps 748 mmHg 77%
    01:00 +11°C° 0 mm 3 mps 748 mmHg 79%
    02:00 +11°C° 0 mm 3 mps 748 mmHg 82%
    03:00 +10°C° 0 mm 3 mps 747 mmHg 84%
    04:00 +10°C° 0 mm 3 mps 747 mmHg 86%
    05:00 +9°C° 0 mm 3 mps 747 mmHg 88%
    06:00 +10°C° 0 mm 3 mps 748 mmHg 86%
    07:00 +10°C° 0 mm 4 mps 748 mmHg 85%
    08:00 +11°C° 0 mm 4 mps 748 mmHg 83%
    09:00 +12°C° 0 mm 4 mps 748 mmHg 77%
    10:00 +13°C° 0 mm 5 mps 748 mmHg 71%
    11:00 +14°C° 0 mm 5 mps 748 mmHg 65%
    12:00 +14°C° 0 mm 5 mps 747 mmHg 63%
    13:00 +14°C° 0 mm 5 mps 747 mmHg 60%
    14:00 +15°C° 0 mm 5 mps 747 mmHg 57%
    15:00 +14°C° 0 mm 4 mps 747 mmHg 59%
    16:00 +13°C° 0 mm 4 mps 747 mmHg 61%
    17:00 +13°C° 0 mm 3 mps 747 mmHg 63%
    18:00 +12°C° 0 mm 3 mps 747 mmHg 64%
    19:00 +12°C° 0 mm 3 mps 747 mmHg 65%
    20:00 +11°C° 0 mm 3 mps 748 mmHg 67%
    21:00 +11°C° 0.2 mm 4 mps 748 mmHg 69%
    22:00 +11°C° 0.2 mm 4 mps 748 mmHg 72%
    23:00 +11°C° 0.2 mm 4 mps 748 mmHg 74%
    Show more